Satellite: MET-3/5
Catalog number: 21655
Epoch time:      08303.96269353
Element set:    0576
Inclination:      082.5599 deg
RA of node:       009.1616 deg
Eccentricity:    0.0014426
Arg of perigee:   040.8750 deg
Mean anomaly:     319.3451 deg
Mean motion:   13.17016835 rev/day
Decay rate:        5.1e-07 rev/day^2
Epoch rev:           82732
Checksum:              304

Satellite: MET-2/21
Catalog number: 22782
Epoch time:      08303.71392954
Element set:    0289
Inclination:      082.5520 deg
RA of node:       004.8520 deg
Eccentricity:    0.0020893
Arg of perigee:   273.2281 deg
Mean anomaly:     086.6488 deg
Mean motion:   13.83631843 rev/day
Decay rate:      -1.07e-06 rev/day^2
Epoch rev:           76573
Checksum:              314

Satellite: OKEAN-4
Catalog number: 23317
Epoch time:      08303.63063181
Element set:    0734
Inclination:      082.5414 deg
RA of node:       189.6237 deg
Eccentricity:    0.0023617
Arg of perigee:   046.7252 deg
Mean anomaly:     313.5918 deg
Mean motion:   14.82646223 rev/day
Decay rate:       1.92e-06 rev/day^2
Epoch rev:           75820
Checksum:              293

Satellite: NOAA-14
Catalog number: 23455
Epoch time:      08304.51276732
Element set:     366
Inclination:      098.9354 deg
RA of node:       016.7464 deg
Eccentricity:    0.0010291
Arg of perigee:   119.9880 deg
Mean anomaly:     240.2313 deg
Mean motion:   14.13749933 rev/day
Decay rate:      -2.07e-06 rev/day^2
Epoch rev:           71347
Checksum:              303

Satellite: NOAA-15
Catalog number: 25338
Epoch time:      08304.54852311
Element set:     679
Inclination:      098.5665 deg
RA of node:       293.0488 deg
Eccentricity:    0.0010867
Arg of perigee:   012.6103 deg
Mean anomaly:     347.5329 deg
Mean motion:   14.24730127 rev/day
Decay rate:       -2.5e-07 rev/day^2
Epoch rev:           54407
Checksum:              304

Satellite: RESURS
Catalog number: 25394
Epoch time:      08303.72047135
Element set:      57
Inclination:      098.3704 deg
RA of node:       341.4448 deg
Eccentricity:    0.0001638
Arg of perigee:   131.2886 deg
Mean anomaly:     228.8434 deg
Mean motion:   14.24173835 rev/day
Decay rate:       -1.2e-07 rev/day^2
Epoch rev:           53559
Checksum:              294

Satellite: FENGYUN1
Catalog number: 25730
Epoch time:      08303.95680434
Element set:    0620
Inclination:      098.7357 deg
RA of node:       275.2598 deg
Eccentricity:    0.0020611
Arg of perigee:   142.2543 deg
Mean anomaly:     218.0073 deg
Mean motion:   14.07831034 rev/day
Decay rate:       6.75e-06 rev/day^2
Epoch rev:           48792
Checksum:              296

Satellite: OKEAN-0
Catalog number: 25860
Epoch time:      08303.90865633
Element set:    0511
Inclination:      097.7636 deg
RA of node:       288.5910 deg
Eccentricity:    0.0000877
Arg of perigee:   098.1547 deg
Mean anomaly:     261.9759 deg
Mean motion:   14.73541915 rev/day
Decay rate:        3.6e-07 rev/day^2
Epoch rev:           49923
Checksum:              335

Satellite: NOAA-16
Catalog number: 26536
Epoch time:      08304.50366929
Element set:     154
Inclination:      099.1679 deg
RA of node:       296.7278 deg
Eccentricity:    0.0010196
Arg of perigee:   202.2438 deg
Mean anomaly:     157.8287 deg
Mean motion:   14.12499882 rev/day
Decay rate:      -2.17e-06 rev/day^2
Epoch rev:           41787
Checksum:              348

Satellite: NOAA-17
Catalog number: 27453
Epoch time:      08304.52293975
Element set:     153
Inclination:      098.5198 deg
RA of node:       005.1239 deg
Eccentricity:    0.0012660
Arg of perigee:   075.8852 deg
Mean anomaly:     284.3742 deg
Mean motion:   14.24012613 rev/day
Decay rate:       -6.9e-07 rev/day^2
Epoch rev:           33006
Checksum:              298

Satellite: NOAA-18
Catalog number: 28654
Epoch time:      08304.54604388
Element set:     639
Inclination:      098.8806 deg
RA of node:       243.8792 deg
Eccentricity:    0.0013573
Arg of perigee:   293.4920 deg
Mean anomaly:     066.4826 deg
Mean motion:   14.11204104 rev/day
Decay rate:       1.50e-06 rev/day^2
Epoch rev:           17756
Checksum:              319

/EX
SB KEPS @ AMSAT  $ORB08304.M
Orbital Elements  08304.MISC

HR AMSAT ORBITAL ELEMENTS FOR MANNED AND MISCELLANEOUS SATELLITES
FROM WA5QGD FORT WORTH,TX October 30, 2008
Send Subscribe/unsubscribe to KEPS at 
http://www.amsat.org/mailman/listinfo/keps
BID: ORB08304.M
TO ALL RADIO AMATEURS BT

Satellite: HUBBLE
Catalog number: 20580
Epoch time:      08303.90964857
Element set:    0263
Inclination:      028.4685 deg
RA of node:       164.5122 deg
Eccentricity:    0.0003549
Arg of perigee:   014.5435 deg
Mean anomaly:     345.5257 deg
Mean motion:   15.00422136 rev/day
Decay rate:       3.25e-06 rev/day^2
Epoch rev:           81523
Checksum:              278

Satellite: PO-34
Catalog number: 25520
Epoch time:      08303.51652626
Element set:    0121
Inclination:      028.4604 deg
RA of node:       359.4173 deg
Eccentricity:    0.0005177
Arg of perigee:   303.9412 deg
Mean anomaly:     056.0690 deg
Mean motion:   15.17248645 rev/day
Decay rate:       3.20e-06 rev/day^2
Epoch rev:           55358
Checksum:              280

